DW1231 Weather Reports


Display with metric or nautical units.
time (UTC)temp
F
wind
direction
speed
MPH
gust
MPH
rain 1hr
in
rain 24hr
in
rain mn
in
humidity
%
barometer
mb
20260502205853 75 237 9.0 11.0 0.00 0.00 0.00 32 1023.1
20260502204901 77 11 6.0 7.0 0.00 0.00 0.00 32 1023.4
20260502203854 75 202 4.0 6.0 0.00 0.00 0.00 32 1023.4
20260502202901 76 91 4.0 5.0 0.00 0.00 0.00 34 1023.7
20260502201853 75 236 2.0 5.0 0.00 0.00 0.00 34 1023.6
20260502200901 75 96 2.0 3.0 0.00 0.00 0.00 32 1023.8
20260502195913 74 249 4.0 6.0 0.00 0.00 0.00 35 1024.0
20260502194901 75 130 2.0 5.0 0.00 0.00 0.00 33 1023.9
20260502193853 75 31 5.0 7.0 0.00 0.00 0.00 32 1024.0
20260502192902 74 221 6.0 7.0 0.00 0.00 0.00 32 1024.2
20260502191914 74 294 4.0 6.0 0.00 0.00 0.00 32 1024.2
20260502190901 75 64 3.0 6.0 0.00 0.00 0.00 33 1024.4
20260502185853 74 217 4.0 7.0 0.00 0.00 0.00 34 1024.5
20260502184901 73 218 3.0 5.0 0.00 0.00 0.00 34 1024.6
20260502183853 74 252 8.0 10.0 0.00 0.00 0.00 33 1024.7
20260502182901 74 136 1.0 2.0 0.00 0.00 0.00 31 1024.7
20260502181854 74 185 3.0 6.0 0.00 0.00 0.00 32 1024.9
20260502180901 73 118 2.0 2.0 0.00 0.00 0.00 35 1025.1
20260502163914 71 353 4.0 5.0 0.00 0.00 0.00 35 1025.8
20260502162902 70 208 5.0 6.0 0.00 0.00 0.00 34 1025.7
20260502162034 69 317 5.0 6.0 0.00 0.00 0.00 33 1025.6
20260502160922 69 2 4.0 7.0 0.00 0.00 0.00 34 1025.8
20260502151854 66 240 4.0 5.0 0.00 0.00 0.00 43 1025.5
20260502150902 66 94 3.0 5.0 0.00 0.00 0.00 47 1025.6
20260502122922 51 0.0 0.0 0.00 0.00 0.00 89 1024.0
20260502121854 50 145 1.0 1.0 0.00 0.00 0.00 90 1023.8
20260502120902 50 158 2.0 2.0 0.00 0.00 0.00 91 1023.8
20260502115853 50 183 2.0 2.0 0.00 0.00 0.00 91 1023.6
20260502114922 50 168 2.0 2.0 0.00 0.00 0.00 91 1023.5
20260502113854 50 209 2.0 3.0 0.00 0.00 0.00 91 1023.2
20260502112942 50 182 2.0 2.0 0.00 0.00 0.00 91 1023.3
20260502111914 50 175 2.0 2.0 0.00 0.00 0.00 90 1023.0
20260502110903 50 223 3.0 3.0 0.00 0.00 0.00 90 1023.1
20260502105854 50 169 3.0 3.0 0.00 0.00 0.00 91 1023.1
20260502104918 50 206 3.0 3.0 0.00 0.00 0.00 90 1022.7
20260502103854 50 162 2.0 2.0 0.00 0.00 0.00 90 1022.6
20260502102903 50 156 2.0 2.0 0.00 0.00 0.00 89 1022.5
20260502101854 52 150 2.0 2.0 0.00 0.00 0.00 87 1022.4
20260502100901 51 162 2.0 2.0 0.00 0.00 0.00 88 1022.5
20260502090902 52 168 2.0 2.0 0.00 0.00 0.00 88 1022.5
20260502070830 54 181 2.0 2.0 0.00 0.00 0.00 83 1022.5
20260502065822 55 177 3.0 3.0 0.00 0.00 0.00 82 1022.6
20260502064830 54 209 3.0 3.0 0.00 0.00 0.00 83 1022.6
20260502063822 54 191 3.0 3.0 0.00 0.00 0.00 84 1022.7
20260502062831 55 209 3.0 3.0 0.00 0.00 0.00 84 1022.5
20260502061822 54 212 3.0 3.0 0.00 0.00 0.00 86 1022.6
20260502060850 54 197 3.0 3.0 0.00 0.00 0.00 85 1022.6
20260502055822 55 163 2.0 2.0 0.00 0.00 0.00 84 1022.6
20260502054831 56 146 1.0 1.0 0.00 0.00 0.00 80 1022.6
20260502053823 56 144 1.0 1.0 0.00 0.00 0.00 79 1022.6
20260502052829 57 147 1.0 1.0 0.00 0.00 0.00 78 1022.7
20260502051822 57 160 3.0 3.0 0.00 0.00 0.00 77 1022.5
20260502050831 57 170 3.0 3.0 0.00 0.00 0.00 77 1022.5
20260502045822 57 158 2.0 2.0 0.00 0.00 0.00 78 1022.6
20260502044830 57 142 1.0 1.0 0.00 0.00 0.00 78 1022.6
20260502043822 57 137 2.0 2.0 0.00 0.00 0.00 78 1022.4
20260502042830 58 143 1.0 1.0 0.00 0.00 0.00 76 1022.5
20260502041823 58 146 2.0 2.0 0.00 0.00 0.00 77 1022.4
20260502040831 58 0.0 0.0 0.00 0.00 0.00 76 1022.3
20260502035823 58 0.0 0.0 0.00 0.00 0.00 76 1022.4
20260502034830 58 136 1.0 1.0 0.00 0.00 0.00 76 1022.4
20260502033822 59 134 1.0 1.0 0.00 0.00 0.00 75 1022.4
20260502032830 59 140 1.0 1.0 0.00 0.00 0.00 75 1022.4
20260502031823 59 0.0 0.0 0.00 0.00 0.00 76 1022.4
20260502030831 59 0.0 0.0 0.00 0.00 0.00 76 1022.3
20260502025822 59 0.0 0.0 0.00 0.00 0.00 75 1022.0
20260502024911 60 0.0 0.0 0.00 0.00 0.00 73 1022.2
20260502023822 60 136 1.0 2.0 0.00 0.00 0.00 72 1021.8
20260502022831 60 0.0 0.0 0.00 0.00 0.00 69 1021.7
20260502021842 61 126 0.0 1.0 0.00 0.00 0.00 69 1021.7
20260502020831 61 0.0 0.0 0.00 0.00 0.00 69 1021.4
20260502015822 60 0.0 0.0 0.00 0.00 0.00 72 1021.3
20260502014830 60 0.0 0.0 0.00 0.00 0.00 73 1021.0
20260502013823 61 0.0 0.0 0.00 0.00 0.00 71 1020.9
20260502012831 61 115 1.0 1.0 0.00 0.00 0.00 69 1020.4
20260502011823 62 126 1.0 1.0 0.00 0.00 0.00 68 1020.5
20260502010851 62 120 3.0 3.0 0.00 0.00 0.00 68 1020.5
20260502005922 62 141 2.0 2.0 0.00 0.00 0.00 67 1020.1
20260502004830 62 125 0.0 1.0 0.00 0.00 0.00 66 1020.1
20260502003843 63 152 2.0 2.0 0.00 0.00 0.00 66 1020.1
20260502002850 63 125 1.0 2.0 0.00 0.00 0.00 65 1020.1
20260502001823 63 131 3.0 3.0 0.00 0.00 0.00 64 1019.7
20260502000851 63 122 2.0 2.0 0.00 0.00 0.00 63 1019.6
20260501235823 63 117 3.0 3.0 0.00 0.00 0.00 64 1019.4
20260501234831 64 124 1.0 1.0 0.00 0.00 0.00 63 1019.4
20260501233807 64 114 2.0 2.0 0.00 0.00 0.00 62 1019.1
20260501232815 64 124 3.0 3.0 0.00 0.00 0.00 62 1019.2
20260501231751 64 132 2.0 3.0 0.00 0.00 0.00 61 1019.1
20260501230735 64 125 3.0 3.0 0.00 0.00 0.00 61 1018.8
20260501225753 64 147 2.0 2.0 0.00 0.00 0.00 60 1018.7
20260501224733 64 112 3.0 3.0 0.00 0.00 0.00 59 1018.7
20260501223733 64 78 2.0 3.0 0.00 0.00 0.00 57 1018.7
20260501222732 64 87 2.0 3.0 0.00 0.00 0.00 56 1018.9
20260501221733 65 76 3.0 3.0 0.00 0.00 0.00 58 1018.7
20260501220733 65 53 3.0 5.0 0.00 0.00 0.00 55 1018.9
20260501215752 64 75 2.0 5.0 0.00 0.00 0.00 55 1018.7
20260501214813 65 75 6.0 9.0 0.00 0.00 0.00 55 1018.6
20260501213733 65 54 5.0 6.0 0.00 0.00 0.00 54 1018.7
20260501212753 65 51 4.0 5.0 0.00 0.00 0.00 55 1018.7
20260501211733 65 61 2.0 5.0 0.00 0.00 0.00 56 1018.8
20260501210733 65 58 2.0 7.0 0.00 0.00 0.00 55 1019.3